COSMOS 2251 DEB

Satellite information

Favourite Embed

Satellite Type and Status

DEBRISIN ORBIT

Key statistics

Satellite COSMOS 2251 DEB at a glance.

Uptime

11650

Days in orbit

Revolutions

≈ 14.1

Per day

Orbit

LEO

Low Earth Orbit

Inclination

74.1

Latest

Satellite identification and parameters

Extended collection of information and parameters for COSMOS 2251 DEB.

Object identification

Identified? True

Debris? True

Object name: COSMOS 2251 DEB

International designator: 1993-036BPK

Object number (NORAD): 37960

Object ID (CCSDS): 37960

Country: COMMONWEALTH OF INDEPENDENT STATES (CIS)

Current information (Y/N): Y

RCS size: SMALL

Orbital parameters

Period: 102.347 minutes

Inclination: 74.062 deg

SMA: 7247.887 km

Apoapsis: 1052.498 km

Periapsis: 687.005 km

RAAN: 209.9979 deg

Eccentricy: 0.0252137

Argument of periapsis: 281.0302 deg

Mean anomaly: 76.2573 deg

Mean motion: 14.06972742 rev/day

Mean motion (dot): 0.00002048 rev/day2

B* drag term: 0.00093105 1/REarth

Two-line elements (TLE)

Creation date: May 9, 2025, 2:46 a.m.

Reference frame: TEME

Reference center: EARTH

Epoch: May 7, 2025, 11:12 p.m. UTC

TLE line 0: 0 COSMOS 2251 DEB

TLE line 1: 1 37960U 93036BPK 25127.96677788 .00002048 00000-0 93105-3 0 9996

TLE line 2: 2 37960 74.0620 209.9979 0252137 281.0302 76.2573 14.06972742743283

Live tracking on map

Real-time ground track for satellite COSMOS 2251 DEB.

In-orbit conjunctions

A list of the most updated potential collisions computed for object COSMOS 2251 DEB.

Target Orbit TCA Probability of collision Miss distance Type
ASUSAT SSO 2025-01-25 01:48:48 0.000298617 642.0 (m) PAYLOAD
THOR ABLESTAR DEB LEO 2024-11-10 14:29:41 0.0006180895 921.0 (m) DEBRIS

Associated space launch

Military communications satellite. Destroyed in a collision with Iridium 33.

COSMOS 2251 DEB was lifted into orbit during the mission ‘Kosmos-3M | Strela-2M 51’, on board a Kosmos-3M space rocket.

The launch took place on June 16, 1993, 4:17 a.m. from 132/1 (132L).

For more information about the launch, click the button.

Launch to space Kosmos-3M | Strela-2M 51
Kosmos-3M | Strela-2M 51

Agency: N/A

Status: Launch Successful

Launch date: June 16, 1993, 4:17 a.m. UTC

Rocket: Kosmos-3M

Launch pad: 132/1 (132L)

Location: Plesetsk Cosmodrome, Russian Federation

...

Latest news about this satellite

There are no fresh news available about this satellite. Check back as we update our databases every day.


Newsletter sign-up

Weekly statistics, charts and insights to help you stay on top of the space industry.